Location: *
(38.9555°S, 57.3572°E)
Time: 01:23:17
(UTC+00:00)

H-2A R/B - Pass Details

Date: 15 July 2020
Orbit: 529 x 653 km, 98.3° (Epoch: 06 August)

Event Time Altitude Azimuth Distance (km) Brightness Sun altitude
Rises 14:07:31 0° 177° (S) 2,807 5.7 -11.6°
Reaches altitude 10° 14:09:46 10° 186° (S) 1,920 5.0 -12.0°
Maximum altitude 14:13:33 35° 251° (WSW) 976 4.1 -12.7°
Drops below altitude 10° 14:17:27 10° 317° (NW) 1,965 6.1 -13.4°
Sets 14:19:47 0° 325° (NW) 2,882 6.9 -13.8°
